Погода в Верхней Ярославке

Россия / Тамбовская область     53°22′21″N   41°07′42″E
темп.,
°C
ветер,
м/с
пор.,
м/с
влажн.,
%
обл.,
%
осадки,
мм/ч
давл.,
гПа
погр.,
м
16 июня, ср
ср1600:00+17ссв1194100 2.2 100911
03:00+16сз229296 2.2 100813
06:00+18сз259218 0.0 1008138
09:00+22сз33765 0.0 1009500
12:00+25ссз2359100 1.5 10091193
15:00+24сз4469100 3.1 10111037
18:00+21сз368564 2.4 1012228
21:00+18с48895 2.4 1013135
17 июня, чт
чт1700:00+16с39931 0.0 1015200
03:00+14ссв411901 0.0 1017234
06:00+14ссв49870 0.0 1019265
09:00+18ссв69640 0.0 1020522
12:00+21ссв67550 0.0 10211081
15:00+21ссв67580 0.0 10221050
18:00+20ссв510680 0.0 1023489
21:00+15ссв411765 0.0 1024190
18 июня, пт
пт1800:00+13св487597 0.0 1025146
03:00+12св37795 0.0 1026114
06:00+14св37835 0.0 1027202
09:00+19св45670 0.0 1028539
12:00+22св355113 0.0 10271560
15:00+23всв34490 0.0 10271707
18:00+22всв24660 0.0 1026303
21:00+16юв227992 0.0 102715
19 июня, сб
сб1900:00+14ю228211 0.0 102813
03:00+13ю118367 0.0 102910
06:00+15в11775 0.0 102958
09:00+20вюв22660 0.0 1029459
12:00+23вюв23570 0.0 10281149
15:00+25юв12510 0.0 10271557
18:00+24ю22640 0.0 1026707
21:00+18ю22790 0.0 102615
20 июня, вс
вс2000:00+16ююз11825 0.0 102711
03:00+15ююз00840 0.0 102711
06:00+17в12815 0.0 102771
09:00+22вюв23705 0.0 1027532
12:00+25юв23560 0.0 10261298
15:00+26ю23520 0.0 10241530
18:00+26ю23665 0.0 1024489
21:00+20ююв2282100 0.0 102411